KAITUO 1B
1 40912U 15049P   18061.87662363 +.00001248 +00000-0 +63661-4 0  9993
2 40912 097.4509 070.7198 0016425 026.9920 090.4513 15.18481976135539
TIANWANG 1C (TW-1C)
1 40926U 15051B   18062.53077765  .00007244  00000-0  14375-3 0  9990
2 40926  97.1985 105.4167 0008881 312.0762 154.0168 15.47272554136964
TIANWANG 1B (TW-1B)
1 40927U 15051C   18062.07666196  .00007061  00000-0  14600-3 0  9990
2 40927  97.2066 104.8545 0009160 327.1866 116.6271 15.46077211136817
TIANWANG 1A (TW-1A)
1 40928U 15051D   18061.79275547 +.00002923 +00000-0 +80042-4 0  9991
2 40928 097.1986 097.8524 0012155 355.1642 094.8833 15.38054135136426
LAPAN A2
1 40931U 15052B   18061.74274760 +.00000608 +00000-0 -45434-5 0  9993
2 40931 006.0026 189.0789 0014261 302.8501 057.0251 14.76565583131249
LQSAT
1 40958U 15057A   18062.53666491  .00000028  00000-0  12104-4 0  9993
2 40958  97.9498 137.9541 0017376 319.6449  40.3470 14.73018371129290
CHUBUSAT 2
1 41338U 16012B   18061.90604541 +.00000335 +00000-0 +19501-4 0  9995
2 41338 031.0027 268.8770 0013687 100.9771 259.2404 14.99927547111862
CHUBUSAT 3
1 41339U 16012C   18061.93320299 +.00000357 +00000-0 +21176-4 0  9999
2 41339 031.0114 267.4523 0013509 108.2429 251.9712 15.00119231111851
OUFTI-1
1 41458U 16025C   18062.09067226  .00002328  00000-0  12448-3 0  9992
2 41458  98.1518 119.2256 0172309 143.2138 218.1064 15.04307590101486
E-STAR-2
1 41459U 16025D   18061.81340023 +.00001418 +00000-0 +77902-4 0  9997
2 41459 098.1523 118.8128 0173381 144.5437 216.7433 15.04064588101439
AAUSAT 4
1 41460U 16025E   18062.15448593  .00002763  00000-0  14651-3 0  9993
2 41460  98.1464 119.5171 0164527 140.1982 221.1458 15.05362134101537
NUSAT 1
1 41557U 16033B   18062.22172535  .00001259  00000-0  48672-4 0  9997
2 41557  97.4417 146.6234 0014321 165.9986 194.1653 15.28036816 97978
BEESAT 4
1 41619U 16040W   18061.75644431  .00001202  00000-0  56014-4 0  9997
2 41619  97.4284 126.3257 0010327 238.9260 121.0963 15.21784295 81900
PRATHAM
1 41783U 16059A   18061.91612907 +.00000039 +00000-0 +16961-4 0  9994
2 41783 098.1316 125.1215 0034814 070.3135 290.1818 14.62903231076428
ALSAT 1N
1 41789U 16059G   18062.09936486  .00000041  00000-0  17029-4 0  9990
2 41789  98.1318 126.3110 0029614  62.5922 297.8291 14.64130242 76494
NAYIF 1
1 42017U 17008BX  18061.87891075 +.00001323 +00000-0 +57444-4 0  9998
2 42017 097.4611 127.5233 0007482 045.2280 314.9564 15.24080122057873
LILACSAT-1
1 42725U 98067ME  18062.17776751  .00018236  00000-0  19111-3 0  9994
2 42725  51.6373 176.8008 0004240 197.8241 162.2606 15.64457168 43893
MAX VALIER SAT
1 42778U 17036P   18062.47204568  .00000819  00000-0  39920-4 0  9993
2 42778  97.4173 123.8796 0014395  82.2121 278.0748 15.21064428 38432
